Temperature
24 21 21 21 22 22 23 23 23 23 24 23 22 22 21 22 22 21 21 21 21 21 21 20 20 20 19 19 19 18 18 18 17 17 17 16 16 16 16 16 16 16 16 16
21 21 23 24 24 24 24 23 22 23 24 24 22 21 21 21 20 21 20 20 20 20 20 20 19 19 19 19 18 18 18 17 17 17 16 16 16 16 16 15 15 15 15 15
22 23 25 25 25 24 24 23 23 23 23 22 22 20 20 20 20 20 20 20 20 20 19 19 19 18 18 18 18 18 17 17 16 16 16 15 15 15 15 15 15 15 15 15
23 24 25 25 24 24 23 24 24 23 21 20 21 19 19 19 19 19 19 19 19 19 19 19 18 18 18 18 18 17 17 17 16 16 15 15 15 15 15 15 15 14 14 14
23 24 24 24 25 25 24 24 23 23 21 19 19 19 18 18 18 18 18 18 19 19 19 18 18 18 18 18 17 17 17 16 16 15 15 15 15 14 14 14 14 14 14 14
23 24 25 25 25 25 24 22 21 19 18 19 19 19 18 17 18 18 18 18 19 19 18 18 18 18 17 17 17 16 16 16 15 15 15 15 14 14 14 13 13 13 13 13
22 23 24 25 24 23 22 19 18 18 17 18 19 18 17 18 18 18 18 18 18 18 18 17 17 17 17 16 16 16 16 15 15 14 14 14 14 14 14 13 13 13 13 13
21 21 23 24 24 23 22 20 18 18 17 17 18 18 18 19 19 19 19 18 18 18 18 17 17 17 17 16 16 16 15 15 14 14 14 14 14 13 13 13 13 13 13 13
21 21 23 24 24 23 22 20 19 17 17 17 17 18 18 18 18 18 18 18 17 17 17 17 17 16 16 16 16 15 15 15 14 14 14 14 13 13 13 13 13 12 12 12
21 21 21 23 23 22 21 20 17 17 17 17 18 18 17 18 17 17 17 17 17 17 17 16 16 16 16 16 15 15 15 15 14 14 13 13 13 13 13 13 12 12 12 12
20 19 20 21 21 21 20 20 18 16 16 16 16 17 19 18 17 17 17 17 17 17 16 16 16 16 16 15 15 15 14 14 14 14 13 13 13 13 12 12 12 12 12 11
19 17 17 19 20 21 21 20 18 17 17 16 16 16 18 17 17 17 17 17 17 16 16 16 16 16 15 15 14 14 14 14 13 13 13 13 12 12 12 12 12 11 11 11
19 17 16 17 18 19 20 20 19 17 15 15 16 17 18 17 16 17 16 16 16 16 15 15 15 15 14 14 14 13 13 13 13 13 13 12 12 12 12 12 11 11 11 11
19 16 16 17 17 18 18 19 19 18 16 16 17 17 17 16 16 16 16 16 16 15 15 15 14 14 14 14 13 13 13 13 13 12 12 12 12 12 11 11 11 11 11 11
17 16 17 17 19 19 19 20 20 19 18 17 18 17 17 16 15 16 16 15 15 15 15 14 14 14 13 13 13 13 13 12 12 12 12 11 11 11 11 11 11 11 11 10
15 16 16 17 18 19 19 19 19 19 19 18 18 17 17 16 16 15 15 14 14 14 14 14 14 13 13 13 12 12 12 12 12 11 11 11 11 11 11 11 10 10 10 10
14 15 15 15 17 17 17 18 19 18 18 18 17 16 15 15 15 14 14 14 14 14 14 13 13 13 13 13 12 12 12 12 11 11 11 11 11 11 11 11 10 10 10 10
15 14 13 14 15 16 17 18 19 18 17 17 16 15 15 15 15 15 15 15 14 14 14 13 13 13 13 12 12 12 12 11 11 11 11 11 11 10 10 10 10 10 10 10
15 15 14 14 14 15 17 18 18 17 17 16 15 15 15 15 14 14 15 15 15 14 14 14 13 13 12 12 12 12 12 11 11 11 11 11 10 10 10 10 10 10 10 10
15 14 14 14 14 15 16 17 18 17 16 16 15 14 14 14 12 13 14 14 14 14 14 13 13 12 12 12 12 11 11 11 11 11 11 10 10 10 10 10 10 10 10 10
14 14 14 14 14 15 16 17 18 16 15 16 15 14 14 13 13 14 14 14 14 14 13 13 12 12 12 11 11 11 11 11 11 11 10 10 10 10 10 10 10 10 10 10
13 13 13 13 13 14 16 16 15 15 16 16 15 15 14 14 14 14 14 14 13 13 13 12 12 12 11 11 11 11 11 11 11 11 10 10 10 10 10 10 10 10 10 10
13 13 12 12 13 15 16 16 16 16 15 15 15 15 14 14 13 13 13 13 13 13 12 12 12 12 11 11 11 11 11 11 11 10 10 10 10 10 10 10 10 10 10 10
13 13 12 12 13 14 15 16 16 16 15 15 15 15 15 14 14 13 13 13 13 12 12 12 11 11 11 11 11 11 11 11 11 10 10 10 10 10 10 10 10 11 11 11
12 12 12 12 13 14 15 15 15 15 14 14 14 15 14 14 14 13 13 13 12 12 12 12 11 11 11 11 11 11 11 11 11 11 10 10 10 10 11 11 11 11 11 11
12 12 11 11 13 12 14 14 14 14 14 14 14 14 14 14 14 14 13 13 12 12 12 12 11 11 11 11 11 11 11 11 11 11 10 10 10 10 11 11 11 11 11 11
Wind_Speed
3 3 4 8 7 8 5 5 7 9 7 4 3 3 2 4 2 3 4 4 5 7 6 7 8 9 8 7 7 6 5 4 3 4 4 3 3 3 2 3 4 4 4 4
6 5 11 9 7 4 3 5 7 7 6 3 3 4 2 2 3 5 6 5 5 5 5 6 7 7 8 7 7 5 5 4 3 3 3 3 3 3 2 1 2 3 3 3
5 9 7 4 5 4 4 3 5 6 6 5 2 5 3 2 1 2 3 5 5 6 8 8 7 7 6 6 6 6 6 5 4 4 3 2 2 2 1 1 1 1 2 2
5 6 5 5 4 1 4 5 4 4 4 5 2 3 5 2 2 1 1 2 3 4 6 7 8 7 7 6 5 5 5 4 3 4 5 5 3 2 2 2 1 0 1 2
7 6 5 5 5 2 5 4 3 3 2 3 4 1 6 3 2 4 4 3 4 5 7 7 8 8 7 6 5 4 4 3 3 4 5 6 3 2 1 2 1 1 1 1
8 5 2 4 5 2 2 6 7 6 5 3 4 1 5 3 5 4 3 3 4 4 7 7 6 6 6 5 5 5 5 3 3 4 4 6 6 4 3 2 1 1 1 1
8 7 4 3 5 8 6 6 6 7 5 5 4 1 5 6 4 4 5 4 4 5 7 6 7 6 6 6 6 6 5 3 3 4 4 4 5 6 6 5 4 2 1 1
4 7 6 4 1 2 2 5 4 3 5 6 5 2 5 6 4 2 3 4 5 5 5 6 7 7 7 7 7 7 6 5 4 4 3 3 4 4 4 4 3 3 3 2
2 6 6 6 3 1 2 1 5 5 2 3 4 4 5 4 3 1 1 3 4 4 4 4 5 6 6 6 7 7 7 5 4 4 4 3 3 4 4 3 3 2 2 2
1 4 6 6 6 5 2 2 5 3 1 4 5 4 5 6 5 3 2 3 4 4 4 4 4 5 5 5 5 6 5 5 4 4 3 3 3 3 3 3 3 2 2 1
3 0 6 5 3 5 5 4 2 2 4 4 5 7 6 8 6 5 4 5 6 5 5 4 3 3 3 4 4 4 4 3 3 3 3 3 2 3 3 2 2 3 2 2
3 2 4 7 7 4 2 2 3 2 4 4 4 8 6 5 4 4 4 4 5 5 4 3 3 3 4 4 4 3 3 3 2 2 2 2 2 2 2 2 2 2 2 1
3 3 5 9 8 6 4 4 4 1 2 3 3 7 3 1 0 2 3 4 5 5 4 4 4 3 3 4 4 3 3 3 2 3 2 2 2 2 2 2 2 2 2 1
3 2 4 6 8 7 8 10 9 4 3 5 7 8 5 3 3 2 3 5 5 5 6 5 4 3 3 3 3 3 2 3 3 3 3 3 3 3 2 1 1 2 2 2
4 2 6 8 9 9 11 12 10 8 7 7 9 7 6 7 6 5 5 5 6 5 5 5 4 3 3 2 2 3 3 3 4 3 3 2 2 2 2 2 1 2 2 2
1 3 5 8 10 10 12 12 10 8 5 5 4 5 4 2 2 3 5 6 6 5 5 5 5 4 3 3 2 2 2 2 3 3 2 2 2 2 2 2 2 2 2 2
3 3 3 7 10 8 7 6 4 3 3 3 5 6 1 1 2 5 6 6 6 5 4 4 4 4 4 4 4 4 3 3 3 3 3 2 3 2 2 2 2 2 2 2
6 4 2 4 5 5 7 3 2 2 3 1 1 1 3 3 3 4 5 6 5 5 5 4 3 2 2 2 3 3 3 3 3 3 3 3 3 3 2 2 2 1 1 2
7 5 3 2 4 7 6 4 4 4 5 1 0 1 1 3 4 1 1 4 5 5 5 5 4 3 2 3 3 3 3 2 3 3 3 3 3 2 2 2 2 1 1 1
4 3 2 2 3 6 5 6 6 2 3 4 2 2 1 2 1 3 2 3 4 4 4 4 4 3 3 2 3 4 3 2 3 3 3 3 3 3 2 2 2 1 1 1
5 4 2 5 6 7 4 6 4 1 6 6 3 2 2 3 5 4 4 3 4 4 4 4 5 4 3 3 4 4 3 2 3 3 3 3 3 3 3 2 1 1 1 0
3 3 3 2 3 6 6 5 1 6 4 2 2 2 2 2 1 2 5 5 5 4 3 4 4 3 3 4 5 4 3 3 3 3 3 3 2 2 2 2 1 1 1 0
3 4 3 4 7 8 7 5 5 2 2 2 3 3 3 3 2 2 4 6 5 5 3 3 5 4 3 3 5 4 4 3 3 3 3 3 2 2 2 2 2 1 0 1
5 3 3 6 9 10 9 7 4 3 3 4 4 4 3 4 4 3 5 5 5 4 3 3 5 5 4 3 3 4 4 4 4 4 3 3 2 1 1 1 2 2 2 1
9 5 6 10 10 8 7 6 6 6 5 4 3 3 5 5 5 5 6 6 5 4 3 4 5 6 5 4 3 3 3 4 4 3 3 2 2 2 1 1 2 3 3 4
8 8 8 11 10 8 11 8 6 6 6 5 4 4 4 7 7 6 6 6 6 5 4 4 4 5 5 4 4 3 4 4 4 3 3 2 2 1 1 1 2 4 4 6
Wind_Direction
343 59 261 253 230 219 247 283 291 283 291 352 334 313 273 208 160 156 158 166 171 169 173 156 146 143 141 141 137 140 148 160 156 155 163 168 172 169 168 161 155 154 151 140
8 283 250 252 268 273 294 308 300 298 304 327 335 324 326 119 156 160 155 152 152 151 149 150 143 149 150 151 145 140 142 147 176 182 183 176 167 172 179 165 130 138 136 136
238 254 272 280 299 317 312 282 289 296 328 355 19 339 342 346 53 81 126 142 152 154 157 160 153 152 147 149 153 158 164 166 178 174 149 122 101 93 111 124 158 162 138 136
280 275 313 329 311 337 300 277 291 315 351 309 17 301 307 286 18 10 228 154 162 157 156 161 159 158 155 159 159 163 165 160 170 162 144 145 148 151 173 166 163 162 69 93
284 283 305 308 282 265 258 290 317 308 319 336 0 98 291 335 326 274 251 200 173 164 157 163 164 165 160 157 162 162 149 143 157 151 147 146 139 150 121 98 96 57 7 23
268 279 266 270 290 289 326 8 9 27 56 353 305 271 286 288 263 257 237 213 178 158 153 158 155 152 158 160 153 146 141 150 162 148 140 144 153 150 131 123 168 219 256 290
320 321 324 350 355 344 28 50 13 357 2 274 303 318 253 258 252 218 205 194 177 157 156 159 158 161 163 168 164 154 151 162 169 161 158 161 166 164 166 180 187 182 207 238
341 313 321 345 341 289 315 123 152 236 257 281 320 252 253 248 256 223 181 174 161 153 156 167 171 167 168 172 168 159 166 172 170 174 177 174 172 166 167 177 169 177 193 209
306 290 312 325 331 100 0 310 176 155 267 293 285 274 288 272 287 313 112 117 150 151 145 164 170 168 172 172 170 169 172 172 176 179 168 161 169 162 160 162 165 175 196 206
163 289 304 323 4 6 123 166 73 84 275 284 287 269 254 262 261 250 198 173 183 162 152 161 173 181 180 166 155 157 168 176 180 170 163 157 167 165 162 151 156 172 193 207
25 293 310 341 345 306 340 2 79 139 176 201 264 268 243 233 225 220 212 184 175 174 172 175 175 174 163 144 140 147 154 150 156 162 154 150 159 158 146 150 170 181 185 200
4 91 295 283 278 257 255 243 163 200 255 210 226 269 274 218 206 193 192 176 162 158 163 159 144 117 120 125 134 141 147 142 155 160 153 152 144 146 162 184 191 173 171 189
4 63 345 334 341 353 347 323 314 233 182 211 225 265 311 344 223 175 169 162 158 150 144 126 116 116 124 136 138 140 148 148 143 133 140 142 151 160 179 195 190 172 163 137
42 133 191 241 263 285 298 305 307 301 265 258 244 261 287 284 264 231 177 172 161 151 146 136 130 130 131 136 149 150 151 142 137 130 132 152 171 176 181 173 151 156 151 140
49 259 253 258 270 286 291 294 291 276 253 250 265 261 255 240 227 198 170 161 151 153 152 151 150 144 137 140 158 152 142 132 131 129 137 167 168 154 152 139 129 138 141 136
355 253 291 293 290 296 295 295 292 283 269 255 271 274 280 239 154 152 154 152 158 167 166 162 153 147 146 161 162 145 143 145 138 139 153 153 130 132 146 158 148 142 139 125
243 231 295 283 292 311 292 281 287 293 281 239 257 260 285 10 182 184 172 168 170 168 167 169 168 169 174 177 173 167 169 154 144 143 141 129 122 116 151 162 139 154 159 136
214 233 226 271 314 267 254 282 308 290 280 247 203 245 216 193 199 190 171 166 166 165 165 167 163 167 187 172 154 150 139 143 144 142 145 149 140 131 140 139 130 156 152 147
198 190 206 223 261 274 289 323 328 298 287 306 195 269 189 95 61 32 165 152 162 171 168 168 169 163 162 159 152 136 134 140 140 150 159 162 153 135 118 140 146 154 140 132
37 105 180 231 257 263 267 316 322 325 277 323 342 283 226 97 71 255 229 148 133 134 139 147 145 133 146 165 146 137 151 157 174 177 175 170 154 141 146 170 174 150 138 171
346 333 256 250 251 261 269 325 3 351 272 294 281 259 252 239 231 214 177 156 144 143 149 144 140 149 176 171 151 150 159 190 193 168 156 153 155 159 164 169 168 142 131 103
277 271 265 252 255 264 317 345 307 251 267 260 251 255 252 252 239 176 165 159 153 147 145 149 149 163 175 159 153 163 194 206 168 148 149 159 174 179 167 168 193 162 126 79
244 215 229 228 244 274 292 270 266 242 278 262 225 228 196 199 214 194 177 168 167 164 161 166 164 169 172 167 160 177 208 188 159 152 166 182 194 204 191 183 195 223 188 173
282 290 287 289 284 296 299 312 317 307 301 275 232 208 186 196 197 189 180 177 175 173 174 174 165 166 182 194 180 187 191 170 151 152 166 178 177 201 208 202 202 204 224 232
268 295 288 282 284 300 297 301 301 313 317 305 281 218 182 178 185 181 174 180 181 179 185 174 176 178 186 190 187 186 174 153 149 161 168 174 175 176 200 244 238 223 236 217
254 252 256 267 271 274 279 282 294 301 293 279 281 251 197 179 175 173 177 182 179 182 182 177 181 181 185 184 189 194 179 159 154 160 169 177 176 182 193 214 321 309 264 259
Height
1514 1520 1524 1517 1514 1515 1515 1516 1518 1509 1499 1501 1504 1503 1500 1498 1498 1498 1498 1498 1500 1501 1503 1505 1506 1507 1508 1509 1510 1512 1513 1514 1515 1515 1516 1517 1517 1518 1519 1520 1521 1522 1522 1522
1520 1522 1511 1507 1506 1507 1511 1516 1516 1507 1498 1499 1504 1504 1499 1498 1498 1497 1497 1497 1499 1500 1502 1503 1504 1506 1506 1507 1508 1509 1510 1511 1512 1513 1513 1513 1514 1515 1516 1517 1518 1518 1518 1519
1521 1514 1504 1505 1506 1508 1510 1513 1512 1509 1501 1499 1504 1510 1505 1501 1499 1498 1497 1497 1498 1498 1499 1501 1502 1504 1505 1506 1506 1507 1508 1508 1509 1509 1509 1511 1512 1512 1513 1514 1515 1516 1516 1517
1514 1505 1503 1505 1506 1506 1514 1504 1503 1503 1511 1517 1510 1527 1512 1505 1502 1500 1499 1498 1497 1498 1498 1499 1501 1502 1504 1505 1505 1506 1506 1506 1506 1506 1506 1507 1507 1507 1509 1510 1512 1513 1514 1514
1514 1505 1505 1507 1503 1501 1504 1499 1500 1502 1510 1518 1515 1525 1520 1507 1507 1502 1499 1497 1496 1496 1497 1498 1499 1500 1502 1503 1504 1504 1504 1504 1504 1504 1504 1505 1505 1506 1507 1508 1509 1510 1511 1512
1508 1501 1502 1501 1497 1496 1497 1501 1505 1511 1519 1531 1520 1524 1524 1513 1507 1501 1497 1495 1493 1493 1495 1497 1498 1499 1500 1501 1501 1501 1501 1501 1501 1502 1502 1502 1503 1504 1505 1506 1507 1508 1509 1509
1514 1506 1501 1498 1501 1500 1502 1518 1535 1538 1542 1536 1518 1521 1521 1505 1499 1497 1495 1493 1493 1493 1494 1495 1496 1497 1498 1498 1499 1499 1499 1500 1500 1500 1500 1501 1501 1502 1503 1504 1505 1506 1507 1508
1526 1523 1506 1500 1503 1507 1506 1516 1538 1547 1546 1535 1521 1522 1512 1499 1496 1493 1492 1492 1492 1492 1493 1494 1494 1495 1495 1496 1496 1496 1497 1498 1498 1499 1499 1499 1500 1500 1502 1503 1504 1505 1505 1506
1526 1523 1505 1500 1498 1501 1508 1514 1515 1530 1532 1537 1528 1516 1505 1497 1496 1494 1493 1492 1491 1492 1493 1494 1494 1494 1494 1494 1494 1495 1495 1496 1496 1497 1498 1498 1498 1499 1500 1501 1502 1503 1503 1504
1517 1522 1510 1502 1499 1500 1504 1508 1520 1530 1540 1542 1530 1520 1515 1502 1497 1495 1493 1492 1492 1493 1493 1493 1493 1493 1493 1492 1493 1494 1495 1495 1495 1496 1497 1497 1498 1498 1499 1500 1501 1501 1502 1502
1515 1524 1518 1510 1509 1511 1508 1511 1517 1527 1531 1539 1540 1526 1498 1495 1493 1493 1491 1490 1491 1492 1492 1492 1491 1491 1491 1491 1492 1493 1493 1493 1494 1495 1495 1496 1497 1497 1498 1498 1499 1499 1500 1500
1517 1525 1528 1517 1505 1501 1504 1508 1515 1528 1528 1528 1531 1521 1491 1490 1490 1490 1490 1490 1490 1491 1491 1491 1491 1491 1491 1492 1492 1493 1493 1493 1494 1494 1494 1495 1496 1496 1496 1497 1497 1497 1498 1498
1519 1528 1536 1529 1521 1509 1507 1505 1507 1514 1521 1526 1528 1516 1492 1490 1489 1489 1490 1489 1489 1490 1491 1491 1490 1491 1491 1491 1492 1492 1493 1493 1493 1493 1494 1494 1494 1495 1495 1496 1496 1497 1497 1497
1517 1526 1534 1537 1528 1517 1513 1507 1504 1510 1520 1519 1513 1504 1496 1493 1491 1490 1489 1489 1489 1489 1490 1490 1490 1490 1490 1491 1491 1491 1492 1492 1492 1493 1492 1492 1493 1494 1494 1495 1495 1496 1496 1496
1519 1526 1521 1517 1512 1509 1507 1503 1500 1502 1504 1509 1502 1498 1494 1490 1488 1488 1488 1488 1488 1489 1489 1490 1490 1490 1490 1491 1491 1491 1491 1491 1492 1492 1492 1492 1493 1493 1493 1494 1494 1495 1495 1495
1520 1523 1519 1516 1508 1506 1504 1498 1496 1495 1494 1495 1494 1493 1487 1486 1486 1486 1487 1487 1487 1488 1488 1489 1489 1489 1489 1490 1489 1490 1491 1491 1492 1492 1491 1492 1492 1492 1492 1493 1493 1493 1494 1494
1521 1522 1525 1523 1510 1507 1510 1498 1494 1493 1491 1493 1495 1492 1487 1487 1486 1486 1485 1485 1486 1486 1486 1487 1488 1488 1488 1489 1490 1490 1491 1492 1492 1492 1492 1492 1492 1491 1492 1492 1492 1492 1492 1492
1515 1519 1525 1524 1518 1522 1505 1491 1491 1491 1490 1488 1488 1487 1485 1484 1483 1483 1484 1484 1484 1485 1485 1486 1486 1488 1488 1489 1489 1489 1490 1491 1491 1491 1491 1492 1491 1491 1491 1491 1491 1491 1491 1491
1505 1513 1521 1524 1522 1513 1499 1492 1491 1492 1491 1487 1487 1486 1484 1484 1483 1484 1483 1483 1484 1484 1485 1485 1486 1487 1488 1488 1488 1488 1489 1489 1489 1490 1490 1491 1491 1490 1490 1490 1490 1491 1491 1490
1504 1508 1517 1519 1521 1518 1504 1492 1487 1488 1493 1487 1486 1486 1485 1485 1487 1485 1483 1482 1483 1484 1484 1485 1486 1486 1487 1487 1487 1487 1487 1488 1488 1489 1489 1490 1490 1490 1490 1490 1490 1490 1491 1491
1515 1515 1516 1517 1517 1507 1494 1489 1488 1498 1497 1486 1484 1484 1484 1484 1483 1481 1481 1482 1482 1483 1484 1484 1484 1485 1485 1486 1486 1486 1487 1487 1487 1488 1489 1489 1490 1490 1491 1490 1490 1490 1491 1491
1518 1519 1516 1515 1515 1509 1491 1490 1492 1493 1486 1484 1482 1482 1481 1481 1480 1480 1480 1480 1482 1482 1483 1483 1483 1484 1484 1484 1485 1485 1486 1487 1487 1487 1488 1489 1490 1490 1491 1491 1491 1491 1491 1491
1513 1512 1512 1511 1508 1496 1492 1491 1489 1486 1485 1483 1481 1480 1479 1479 1479 1478 1479 1479 1480 1481 1481 1482 1482 1483 1483 1484 1484 1485 1485 1486 1486 1487 1488 1489 1490 1491 1491 1491 1491 1491 1491 1490
1509 1505 1506 1504 1496 1492 1489 1487 1486 1484 1483 1481 1479 1477 1477 1477 1477 1477 1477 1478 1479 1479 1480 1481 1481 1482 1482 1483 1484 1484 1485 1485 1486 1487 1488 1489 1490 1491 1491 1491 1491 1491 1490 1490
1507 1506 1504 1500 1494 1489 1485 1485 1484 1482 1480 1478 1477 1475 1474 1474 1475 1475 1476 1477 1477 1478 1479 1479 1480 1480 1481 1482 1483 1484 1484 1485 1486 1487 1488 1489 1490 1490 1491 1491 1491 1491 1491 1490
1501 1502 1501 1496 1490 1489 1484 1482 1480 1478 1477 1476 1475 1473 1472 1472 1472 1473 1474 1475 1476 1477 1477 1478 1478 1479 1480 1481 1482 1483 1484 1485 1486 1486 1487 1488 1489 1490 1490 1490 1491 1491 1490 1490